Location: Unspecified
(35.6961°N, 0.0000°E)
Time: 11:05:11
(UTC+00:00)

Vanguard 2 Rocket - Pass Details

Date: 01 June 2019
Orbit: 554 x 3326 km, 32.9° (Epoch: 17 June)

Event Time Altitude Azimuth Distance (km) Brightness Sun altitude
Rises 02:44:08 0° 235° (SW) 6,734 - -20.2°
Reaches altitude 10° 02:48:20 10° 232° (SW) 5,941 - -19.6°
Exits shadow 02:53:05 23° 227° (SW) 5,101 10.0 -18.9°
Maximum altitude 03:07:47 64° 157° (SSE) 3,531 9.7 -16.9°
Drops below altitude 10° 03:25:19 10° 81° (E) 5,443 11.7 -14.2°
Sets 03:28:57 0° 79° (E) 6,170 12.3 -13.7°
